User: anonymous   Login
Location: Anuling
(14.1239°N, 120.8922°E)
Time: 12:15:51
(UTC+00:00)
Language:

Helios 1A Rocket - Orbit

View from above orbital plane
View from above orbital plane
View from above satellite
View from above satellite

Ground track
Ground track

The orbit is defined by the following mean orbital elements,

1 23608U          26066.14677124 +.00000000 +00000-0 +82042-3 0 00003
2 23608  98.2875 270.0170 0007443  45.2265 314.9586 15.46948857    02
Epoch (UTC): 07 March 2026 03:31:21
Eccentricity: 0.0007443
inclination: 98.2875°
perigee height: 421 km
apogee height: 431 km
right ascension of ascending node: 270.0170°
argument of perigee: 45.2265°
revolutions per day: 15.46948857
mean anomaly at epoch: 314.9586°

The dashed part of the orbit path shows where the satellite is in the earth's shadow,  

DLR